PST,Max TemperatureF,Mean TemperatureF,Min TemperatureF,Max Dew PointF,MeanDew PointF,Min DewpointF,Max Humidity, Mean Humidity, Min Humidity, Max Sea Level PressureIn, Mean Sea Level PressureIn, Min Sea Level PressureIn, Max VisibilityMiles, Mean VisibilityMiles, Min VisibilityMiles, Max Wind SpeedMPH, Mean Wind SpeedMPH, Max Gust SpeedMPH,PrecipitationIn, CloudCover, Events, WindDirDegrees
2012-11-1,62,52,41,37,33,24,67,50,32,30.05,29.96,29.88,10,10,10,22,5,26,0.00,4,,277
2012-11-2,65,49,33,32,30,27,82,54,25,30.13,30.08,30.01,10,10,9,8,1,18,0.00,4,,291
2012-11-3,70,53,36,31,28,14,70,42,13,30.24,30.17,30.11,10,10,10,9,1,13,0.00,5,,283
2012-11-4,73,55,37,32,30,28,70,46,22,30.43,30.32,30.24,10,10,9,9,1,14,0.00,6,,160
2012-11-5,74,55,36,33,30,27,70,45,20,30.44,30.32,30.24,10,10,10,14,2,17,0.00,1,,116
2012-11-6,75,55,35,32,30,26,75,47,19,30.29,30.18,30.07,10,10,10,15,2,22,0.00,0,,258
2012-11-7,74,56,38,29,26,23,64,40,15,30.15,29.96,29.74,10,10,10,24,6,33,0.00,2,,201
2012-11-8,58,47,35,31,23,7,70,42,14,29.75,29.65,29.55,10,10,8,40,16,53,T,4,Rain,231
2012-11-9,41,35,29,24,18,14,64,51,37,29.84,29.78,29.74,10,10,10,17,6,21,0.01,5,,309
2012-11-10,39,31,22,26,20,13,92,64,35,30.25,29.99,29.83,10,8,0,18,6,24,0.03,5,Fog-Snow,310
2012-11-11,43,31,18,19,16,12,73,55,36,30.42,30.35,30.26,10,10,10,6,1,12,0.00,3,,199
2012-11-12,57,41,25,24,21,19,75,50,24,30.40,30.33,30.24,10,10,10,9,2,12,0.00,3,,29
2012-11-13,60,43,25,30,25,19,75,53,31,30.34,30.24,30.14,10,10,10,7,1,14,0.00,4,,160
2012-11-14,63,47,30,32,26,23,78,51,23,30.23,30.17,30.09,10,10,10,8,1,13,0.00,3,,334
2012-11-15,61,45,28,25,23,20,75,49,23,30.18,30.07,29.98,10,10,10,12,1,17,0.00,4,,288
2012-11-16,56,48,39,40,32,24,71,55,39,30.00,29.95,29.91,10,10,10,14,2,17,T,6,Rain,175
2012-11-17,54,48,42,43,39,28,96,69,42,29.88,29.82,29.78,10,10,9,32,11,40,0.17,7,Rain,174
2012-11-18,55,49,43,37,32,30,71,56,41,30.09,29.95,29.83,10,10,10,36,9,43,T,6,Rain,211
2012-11-19,57,50,42,34,33,31,67,53,38,30.17,30.11,30.08,10,10,10,12,2,16,0.00,5,,295
2012-11-20,61,50,38,34,29,24,70,49,27,30.09,29.97,29.87,10,10,10,44,17,52,0.00,5,,189
2012-11-21,61,49,37,37,33,28,65,49,32,30.22,29.99,29.84,10,10,10,31,11,40,0.00,5,,272
2012-11-22,56,42,27,30,28,24,85,62,38,30.40,30.34,30.24,10,10,10,8,1,9,0.00,4,,328
2012-11-23,58,43,28,30,27,24,85,58,30,30.43,30.35,30.28,10,10,10,6,0,14,0.00,5,,215
2012-11-24,64,46,27,27,24,22,78,49,20,30.30,30.19,30.07,10,10,10,7,0,9,0.00,2,,195
2012-11-25,60,44,27,25,22,20,81,52,23,30.12,30.07,30.00,10,10,10,7,1,14,0.00,3,,223
2012-11-26,58,42,25,27,23,19,75,53,30,30.20,30.13,30.06,10,10,10,6,0,14,0.00,1,,275
2012-11-27,52,39,25,24,22,19,81,55,28,30.23,30.14,30.09,10,10,10,6,0,10,0.00,5,,310
2012-11-28,49,38,27,43,31,21,89,74,59,30.07,29.97,29.88,10,9,3,36,6,44,0.22,5,Rain,7
2012-11-29,60,48,36,35,29,20,82,53,23,29.96,29.85,29.70,10,10,10,48,26,61,0.00,6,,180
2012-11-30,54,49,43,41,38,32,89,68,46,29.88,29.80,29.72,10,9,5,41,15,59,0.42,7,Rain,177